Location: Contre
(49.7477°N, 2.0963°E)
Time: 12:51:34
(UTC+00:00)

Meteor 2-12 Rocket - Pass Details

Date: 04 August 2024
Orbit: 936 x 956 km, 82.5° (Epoch: 14 September)

Event Time Altitude Azimuth Distance (km) Brightness Sun altitude
Rises 23:11:10 0° 360° (N) 3,610 8.9 -22.6°
Reaches altitude 10° 23:15:12 10° 26° (NNE) 2,663 7.5 -22.7°
Maximum altitude 23:18:07 14° 55° (NE) 2,407 6.8 -22.8°
Drops below altitude 10° 23:21:01 10° 84° (E) 2,660 6.7 -22.9°
Enters shadow 23:23:24 - 101° (E) 3,167 7.0 -22.9°
